| time (UTC) | temp C | wind direction | speed KPH | gust KPH | rain 1hr cm | rain 24hr cm | rain mn cm | humidity % | barometer mb |
| 20260510133413 | 22 | 24 | 12.9 | 20.9 | 0.00 | 0.00 | 0.00 | 40 | 1007.7 |
| 20260510130413 | 22 | 55 | 12.9 | 22.5 | 0.00 | 0.00 | 0.00 | 40 | 1007.9 |
| 20260510124913 | 22 | 92 | 16.1 | 22.5 | 0.00 | 0.00 | 0.00 | 38 | 1008.1 |
| 20260510123412 | 22 | 88 | 12.9 | 24.1 | 0.00 | 0.00 | 0.00 | 39 | 1008.4 |
| 20260510120413 | 21 | 80 | 12.9 | 19.3 | 0.00 | 0.00 | 0.00 | 44 | 1008.7 |
| 20260510114913 | 21 | 45 | 12.9 | 17.7 | 0.00 | 0.00 | 0.00 | 45 | 1009.0 |
| 20260510110412 | 20 | 29 | 11.3 | 20.9 | 0.00 | 0.00 | 0.00 | 49 | 1009.4 |
| 20260510103413 | 20 | 41 | 11.3 | 19.3 | 0.00 | 0.00 | 0.00 | 50 | 1009.9 |
| 20260510100412 | 18 | 57 | 4.8 | 17.7 | 0.00 | 0.00 | 0.00 | 52 | 1010.2 |
| 20260510094913 | 18 | 87 | 11.3 | 20.9 | 0.00 | 0.00 | 0.00 | 56 | 1010.4 |
| 20260510093413 | 18 | 45 | 8.0 | 16.1 | 0.00 | 0.00 | 0.00 | 54 | 1010.4 |
| 20260510090413 | 17 | 81 | 4.8 | 17.7 | 0.00 | 0.00 | 0.00 | 57 | 1010.8 |
| 20260510084912 | 16 | 95 | 9.7 | 17.7 | 0.00 | 0.00 | 0.00 | 58 | 1011.0 |
| 20260510081913 | 16 | 145 | 9.7 | 19.3 | 0.00 | 0.00 | 0.00 | 61 | 1011.2 |
| 20260510080413 | 15 | 46 | 6.4 | 16.1 | 0.00 | 0.00 | 0.00 | 63 | 1011.5 |
| 20260510073410 | 14 | 88 | 9.7 | 12.9 | 0.00 | 0.00 | 0.00 | 65 | 1011.6 |
| 20260510064912 | 13 | 71 | 9.7 | 14.5 | 0.00 | 0.00 | 0.00 | 70 | 1012.1 |
| 20260510063412 | 12 | 80 | 9.7 | 12.9 | 0.00 | 0.00 | 0.00 | 71 | 1012.2 |
| 20260510061912 | 12 | 24 | 6.4 | 16.1 | 0.00 | 0.00 | 0.00 | 72 | 1012.2 |
| 20260510060412 | 12 | 85 | 6.4 | 11.3 | 0.00 | 0.00 | 0.00 | 74 | 1012.2 |
| 20260510054914 | 11 | 64 | 6.4 | 16.1 | 0.00 | 0.00 | 0.00 | 75 | 1012.3 |
| 20260510053413 | 11 | 87 | 8.0 | 12.9 | 0.00 | 0.00 | 0.00 | 77 | 1012.5 |
| 20260510051912 | 10 | 69 | 6.4 | 11.3 | 0.00 | 0.00 | 0.00 | 80 | 1012.4 |
| 20260510050412 | 9 | 48 | 4.8 | 8.0 | 0.00 | 0.00 | 0.00 | 82 | 1012.6 |
| 20260510044912 | 9 | 95 | 4.8 | 6.4 | 0.00 | 0.00 | 0.00 | 83 | 1012.7 |
| 20260510043415 | 8 | 65 | 4.8 | 9.7 | 0.00 | 0.00 | 0.00 | 84 | 1012.6 |
| 20260510041912 | 8 | 147 | 6.4 | 8.0 | 0.00 | 0.00 | 0.00 | 84 | 1012.6 |
| 20260510040412 | 8 | 59 | 6.4 | 9.7 | 0.00 | 0.00 | 0.00 | 84 | 1012.7 |
| 20260510034912 | 8 | 93 | 4.8 | 8.0 | 0.00 | 0.00 | 0.00 | 83 | 1012.8 |
| 20260510033412 | 8 | 97 | 4.8 | 8.0 | 0.00 | 0.00 | 0.00 | 83 | 1012.9 |
| 20260510031912 | 9 | 88 | 3.2 | 4.8 | 0.00 | 0.00 | 0.00 | 82 | 1012.9 |
| 20260510030414 | 9 | 121 | 1.6 | 4.8 | 0.00 | 0.00 | 0.00 | 81 | 1013.0 |
| 20260510024912 | 9 | 222 | 0.0 | 4.8 | 0.00 | 0.00 | 0.00 | 81 | 1013.0 |
| 20260510023412 | 10 | 112 | 1.6 | 4.8 | 0.00 | 0.00 | 0.00 | 80 | 1013.1 |
| 20260510021912 | 10 | 120 | 3.2 | 6.4 | 0.00 | 0.00 | 0.00 | 80 | 1013.3 |
| 20260510020412 | 10 | 116 | 3.2 | 9.7 | 0.00 | 0.00 | 0.00 | 80 | 1013.3 |
| 20260510014912 | 10 | 81 | 4.8 | 9.7 | 0.00 | 0.00 | 0.00 | 81 | 1013.3 |
| 20260510011911 | 10 | 121 | 3.2 | 4.8 | 0.00 | 0.00 | 0.00 | 80 | 1013.5 |
| 20260510010413 | 10 | 360 | 3.2 | 8.0 | 0.00 | 0.00 | 0.00 | 81 | 1013.4 |
| 20260510003412 | 10 | 48 | 4.8 | 8.0 | 0.00 | 0.00 | 0.00 | 80 | 1013.7 |
| 20260510000412 | 10 | 52 | 3.2 | 4.8 | 0.00 | 0.00 | 0.00 | 79 | 1014.0 |
| 20260509234912 | 11 | 75 | 1.6 | 4.8 | 0.00 | 0.00 | 0.00 | 78 | 1014.3 |
| 20260509233412 | 11 | 134 | 1.6 | 3.2 | 0.00 | 0.00 | 0.00 | 76 | 1014.4 |
| 20260509231915 | 11 | 81 | 3.2 | 4.8 | 0.00 | 0.00 | 0.00 | 75 | 1014.5 |
| 20260509230411 | 11 | 160 | 1.6 | 3.2 | 0.00 | 0.00 | 0.00 | 75 | 1014.6 |
| 20260509224911 | 12 | 88 | 0.0 | 3.2 | 0.00 | 0.00 | 0.00 | 74 | 1014.5 |
| 20260509223412 | 12 | 120 | 3.2 | 9.7 | 0.00 | 0.00 | 0.00 | 73 | 1014.6 |
| 20260509221912 | 12 | 360 | 3.2 | 9.7 | 0.00 | 0.00 | 0.00 | 72 | 1014.5 |
| 20260509214911 | 12 | 112 | 4.8 | 6.4 | 0.00 | 0.00 | 0.00 | 70 | 1014.7 |
| 20260509213411 | 13 | 97 | 4.8 | 8.0 | 0.00 | 0.00 | 0.00 | 68 | 1014.9 |
| 20260509210412 | 13 | 88 | 3.2 | 4.8 | 0.00 | 0.00 | 0.00 | 64 | 1015.0 |
| 20260509204913 | 13 | 81 | 3.2 | 4.8 | 0.00 | 0.00 | 0.00 | 62 | 1015.1 |
| 20260509203414 | 14 | 27 | 1.6 | 6.4 | 0.00 | 0.00 | 0.00 | 60 | 1015.0 |
| 20260509201912 | 14 | 89 | 1.6 | 3.2 | 0.00 | 0.00 | 0.00 | 58 | 1015.3 |
| 20260509200414 | 15 | 89 | 0.0 | 4.8 | 0.00 | 0.00 | 0.00 | 56 | 1015.3 |
| 20260509194913 | 15 | 313 | 0.0 | 3.2 | 0.00 | 0.00 | 0.00 | 56 | 1015.4 |
| 20260509193412 | 15 | 134 | 0.0 | 4.8 | 0.00 | 0.00 | 0.00 | 55 | 1015.5 |
| 20260509191914 | 16 | 133 | 1.6 | 3.2 | 0.00 | 0.00 | 0.00 | 55 | 1015.2 |
| 20260509190411 | 16 | 89 | 1.6 | 6.4 | 0.00 | 0.00 | 0.00 | 54 | 1015.1 |
| 20260509184914 | 16 | 76 | 3.2 | 6.4 | 0.00 | 0.00 | 0.00 | 52 | 1015.0 |
| 20260509183413 | 17 | 140 | 3.2 | 4.8 | 0.00 | 0.00 | 0.00 | 51 | 1015.0 |
| 20260509181911 | 17 | 31 | 1.6 | 6.4 | 0.00 | 0.00 | 0.00 | 50 | 1014.9 |
| 20260509174914 | 18 | 55 | 3.2 | 11.3 | 0.00 | 0.00 | 0.00 | 48 | 1014.9 |
| 20260509171913 | 18 | 55 | 4.8 | 14.5 | 0.00 | 0.00 | 0.00 | 47 | 1014.9 |
| 20260509170413 | 18 | 84 | 6.4 | 14.5 | 0.00 | 0.00 | 0.00 | 47 | 1014.9 |
| 20260509164913 | 18 | 52 | 8.0 | 16.1 | 0.00 | 0.00 | 0.00 | 48 | 1014.9 |
| 20260509161913 | 19 | 8 | 11.3 | 14.5 | 0.00 | 0.00 | 0.00 | 46 | 1015.2 |
| 20260509160413 | 19 | 33 | 6.4 | 12.9 | 0.00 | 0.00 | 0.00 | 46 | 1015.2 |
| 20260509154912 | 20 | 359 | 3.2 | 16.1 | 0.00 | 0.00 | 0.00 | 45 | 1015.2 |
| 20260509153413 | 20 | 66 | 4.8 | 11.3 | 0.00 | 0.00 | 0.00 | 44 | 1015.3 |
| 20260509151916 | 20 | 11 | 9.7 | 16.1 | 0.00 | 0.00 | 0.00 | 44 | 1015.6 |
| 20260509150413 | 20 | 88 | 4.8 | 17.7 | 0.00 | 0.00 | 0.00 | 44 | 1015.5 |
| 20260509144913 | 20 | 85 | 12.9 | 19.3 | 0.00 | 0.00 | 0.00 | 45 | 1015.8 |
| 20260509143413 | 20 | 58 | 9.7 | 17.7 | 0.00 | 0.00 | 0.00 | 45 | 1015.7 |
| 20260509140413 | 20 | 71 | 6.4 | 12.9 | 0.00 | 0.00 | 0.00 | 47 | 1015.8 |
| 20260509134915 | 19 | 36 | 4.8 | 9.7 | 0.00 | 0.00 | 0.00 | 48 | 1015.8 |